timestamp,surface_pressure_avg,surface_temp_avg,battery_voltage,lat,long
2022-11-06 00:09:01+00:00,304.1364,11.7,12.57,47.84626,-54.09684
2022-11-06 00:19:00+00:00,292.6213,11.7,12.57,47.84626,-54.09684
2022-11-06 00:29:00+00:00,286.2881,11.7,12.57,47.84626,-54.09684
2022-11-06 00:39:00+00:00,280.8147,11.7,12.57,47.84626,-54.09684
2022-11-06 00:49:00+00:00,271.1431,11.7,12.57,47.84626,-54.09684
2022-11-06 00:59:00+00:00,264.1897,11.7,12.57,47.84626,-54.09684
2022-11-06 01:09:00+00:00,260.4381,11.7,12.57,47.84626,-54.09684
2022-11-06 01:19:00+00:00,247.7998,11.69,12.57,47.84626,-54.09684
2022-11-06 01:29:00+00:00,239.8748,11.69,12.57,47.84626,-54.09684
2022-11-06 01:39:00+00:00,242.4714,11.68,12.57,47.84626,-54.09684
2022-11-06 01:49:00+00:00,236.593,11.66,12.57,47.84626,-54.09684
2022-11-06 01:59:00+00:00,218.4764,11.61,12.57,47.84626,-54.09684
2022-11-06 02:09:00+00:00,212.0714,11.6,12.57,47.84626,-54.09684
2022-11-06 02:19:00+00:00,215.6747,11.6,12.57,47.84626,-54.09684
2022-11-06 02:29:00+00:00,207.2531,11.6,12.57,47.84626,-54.09684
2022-11-06 02:39:00+00:00,198.7615,11.6,12.57,47.84626,-54.09684
2022-11-06 02:49:00+00:00,202.7397,11.6,12.57,47.84626,-54.09684
2022-11-06 02:59:00+00:00,202.7748,11.6,12.57,47.84626,-54.09684
2022-11-06 03:09:00+00:00,194.0581,11.6,12.57,47.84626,-54.09684
2022-11-06 03:19:00+00:00,193.4248,11.6,12.57,47.84626,-54.09684
2022-11-06 03:29:00+00:00,200.4731,11.6,12.57,47.84626,-54.09684
2022-11-06 03:39:00+00:00,200.9948,11.6,12.57,47.84626,-54.09684
2022-11-06 03:49:00+00:00,200.4065,11.6,12.57,47.84626,-54.09684
2022-11-06 03:59:00+00:00,206.4164,11.6,12.57,47.84626,-54.09684
2022-11-06 04:09:00+00:00,209.2781,11.6,12.57,47.84626,-54.09684
2022-11-06 04:19:00+00:00,208.4448,11.6,12.57,47.84626,-54.09684
2022-11-06 04:29:00+00:00,208.8781,11.6,12.57,47.84626,-54.09684
2022-11-06 04:39:00+00:00,214.6265,11.59,12.57,47.84626,-54.09684
2022-11-06 04:49:00+00:00,220.2998,11.59,12.57,47.84626,-54.09684
2022-11-06 04:59:00+00:00,220.3148,11.59,12.57,47.84626,-54.09684
2022-11-06 05:09:00+00:00,222.7731,11.59,12.57,47.84626,-54.09684
2022-11-06 05:19:00+00:00,230.2515,11.59,12.57,47.84626,-54.09684
2022-11-06 05:29:00+00:00,233.0314,11.59,12.57,47.84626,-54.09684
2022-11-06 05:39:00+00:00,233.5714,11.59,12.57,47.84626,-54.09684
2022-11-06 05:49:00+00:00,239.0448,11.59,12.57,47.84626,-54.09684
2022-11-06 05:59:00+00:00,248.5531,11.59,12.57,47.84626,-54.09684
2022-11-06 06:09:00+00:00,250.1164,11.59,12.57,47.84626,-54.09684
2022-11-06 06:19:00+00:00,251.1648,11.59,12.57,47.84626,-54.09684
2022-11-06 06:29:00+00:00,258.6231,11.59,12.57,47.84626,-54.09684
2022-11-06 06:39:00+00:00,266.6364,11.58,12.57,47.84626,-54.09684
2022-11-06 06:49:00+00:00,266.8464,11.58,12.57,47.84626,-54.09684
2022-11-06 06:59:00+00:00,269.9397,11.57,12.57,47.84626,-54.09684
2022-11-06 07:09:00+00:00,281.6497,11.57,12.57,47.84626,-54.09684
2022-11-06 07:19:00+00:00,288.3564,11.54,12.57,47.84626,-54.09684
2022-11-06 07:29:00+00:00,288.2463,11.51,12.57,47.84626,-54.09684
2022-11-06 07:39:00+00:00,294.0297,11.51,12.57,47.84626,-54.09684
2022-11-06 07:49:00+00:00,306.3247,11.53,12.57,47.84626,-54.09684
2022-11-06 07:59:00+00:00,313.893,11.5,12.57,47.84626,-54.09684
2022-11-06 08:09:00+00:00,320.9764,11.5,12.57,47.84626,-54.09684
2022-11-06 08:19:01+00:00,329.6947,11.51,12.57,47.84626,-54.09684
2022-11-06 08:29:01+00:00,335.4796,11.5,12.57,47.84626,-54.09684
2022-11-06 08:39:01+00:00,340.2147,11.5,12.57,47.84626,-54.09684
2022-11-06 08:49:01+00:00,343.5996,11.5,12.57,47.84626,-54.09684
2022-11-06 08:59:01+00:00,350.0946,11.5,12.57,47.84626,-54.09684
2022-11-06 09:09:01+00:00,357.4579,11.4,12.57,47.84626,-54.09684
2022-11-06 09:19:00+00:00,361.3596,11.29,12.57,47.84626,-54.09684
2022-11-06 09:29:00+00:00,364.9413,11.2,12.57,47.84626,-54.09684
2022-11-06 09:39:00+00:00,366.7012,11.2,12.57,47.84626,-54.09684
2022-11-06 09:49:00+00:00,375.5163,11.2,12.57,47.84626,-54.09684
2022-11-06 09:59:00+00:00,382.163,11.2,12.57,47.84626,-54.09684
2022-11-06 10:09:00+00:00,379.1912,11.2,12.57,47.84626,-54.09684
2022-11-06 10:19:00+00:00,379.1296,11.21,12.57,47.84626,-54.09684
2022-11-06 10:29:00+00:00,382.2613,11.23,12.57,47.84626,-54.09684
2022-11-06 10:39:00+00:00,378.8629,11.27,12.57,47.84626,-54.09684
2022-11-06 10:49:00+00:00,378.2346,11.29,12.57,47.84626,-54.09684
2022-11-06 10:59:00+00:00,378.8729,11.3,12.57,47.84626,-54.09684
2022-11-06 11:09:00+00:00,376.1646,11.3,12.57,47.84626,-54.09684
2022-11-06 11:19:00+00:00,366.8079,11.3,12.49,47.84626,-54.09684
2022-11-06 11:29:00+00:00,362.5729,11.3,12.49,47.84626,-54.09684
2022-11-06 11:39:00+00:00,361.2363,11.3,12.49,47.84626,-54.09684
2022-11-06 11:49:00+00:00,350.208,11.26,12.49,47.84626,-54.09684
2022-11-06 11:59:00+00:00,343.75300000000016,11.22,12.49,47.84626,-54.09684
2022-11-06 12:09:00+00:00,337.1447,11.2,12.49,47.84626,-54.09684
2022-11-06 12:19:00+00:00,329.7596,11.2,12.57,47.84626,-54.09684
2022-11-06 12:29:00+00:00,319.8013,11.2,12.57,47.84626,-54.09684
2022-11-06 12:39:00+00:00,309.073,11.2,12.57,47.84626,-54.09684
2022-11-06 12:49:00+00:00,306.098,11.2,12.57,47.84626,-54.09684
2022-11-06 12:59:00+00:00,298.0897,11.2,12.57,47.84626,-54.09684
2022-11-06 13:09:00+00:00,288.1514,11.2,12.57,47.84626,-54.09684
2022-11-06 13:19:00+00:00,280.6714,11.2,12.57,47.84626,-54.09684
2022-11-06 13:29:00+00:00,278.6497,11.2,12.57,47.84626,-54.09684
2022-11-06 13:39:00+00:00,269.088,11.16,12.57,47.84626,-54.09684
2022-11-06 13:49:00+00:00,258.9564,11.1,12.57,47.84626,-54.09684
2022-11-06 13:59:00+00:00,254.7514,11.1,12.57,47.84626,-54.09684
2022-11-06 14:09:00+00:00,252.4448,11.1,12.57,47.84626,-54.09684
2022-11-06 14:19:00+00:00,244.4348,11.09,12.65,47.84626,-54.09684
2022-11-06 14:29:00+00:00,235.8248,11.0,12.65,47.84626,-54.09684
2022-11-06 14:39:00+00:00,231.0348,11.0,12.65,47.84626,-54.09684
2022-11-06 14:49:00+00:00,226.9531,11.0,12.65,47.84626,-54.09684
2022-11-06 14:59:00+00:00,221.3364,11.0,12.65,47.84626,-54.09684
2022-11-06 15:09:00+00:00,213.0131,11.0,12.65,47.84626,-54.09684
2022-11-06 15:19:00+00:00,210.2215,11.0,12.65,47.84626,-54.09684
2022-11-06 15:29:00+00:00,209.4631,11.0,12.65,47.84626,-54.09684
2022-11-06 15:39:00+00:00,201.5315,11.0,12.65,47.84626,-54.09684
2022-11-06 15:49:00+00:00,194.0348,11.01,12.65,47.84626,-54.09684
2022-11-06 15:59:00+00:00,199.0515,11.03,12.65,47.84626,-54.09684
2022-11-06 16:09:00+00:00,204.6898,11.06,12.65,47.84626,-54.09684
2022-11-06 16:19:00+00:00,200.4431,11.08,12.65,47.84626,-54.09684
2022-11-06 16:29:00+00:00,199.3381,11.09,12.65,47.84626,-54.09684
2022-11-06 16:39:00+00:00,207.9398,11.09,12.65,47.84626,-54.09684
2022-11-06 16:49:00+00:00,206.2864,11.1,12.65,47.84626,-54.09684
2022-11-06 16:59:00+00:00,197.9181,11.1,12.65,47.84626,-54.09684
2022-11-06 17:09:00+00:00,202.2614,11.1,12.65,47.84626,-54.09684
2022-11-06 17:19:00+00:00,209.1048,11.1,12.65,47.84626,-54.09684
2022-11-06 17:29:00+00:00,208.5598,11.1,12.65,47.84626,-54.09684
2022-11-06 17:39:00+00:00,210.2648,11.1,12.65,47.84626,-54.09684
2022-11-06 17:49:00+00:00,214.8964,11.19,12.65,47.84626,-54.09684
2022-11-06 17:59:00+00:00,217.1731,11.33,12.65,47.84626,-54.09684
2022-11-06 18:09:00+00:00,215.9747,11.3,12.65,47.84626,-54.09684
2022-11-06 18:19:00+00:00,221.1465,11.3,12.57,47.84626,-54.09684
2022-11-06 18:29:00+00:00,227.3215,11.39,12.57,47.84626,-54.09684
2022-11-06 18:39:00+00:00,233.3663,11.4,12.57,47.84626,-54.09684
2022-11-06 18:49:00+00:00,239.4581,11.4,12.57,47.84626,-54.09684
2022-11-06 18:59:00+00:00,242.4347,11.4,12.57,47.84626,-54.09684
2022-11-06 19:09:00+00:00,244.3481,11.3,12.57,47.84626,-54.09684
2022-11-06 19:19:00+00:00,255.2364,11.29,12.57,47.84626,-54.09684
2022-11-06 19:29:00+00:00,261.9747,11.29,12.57,47.84626,-54.09684
2022-11-06 19:39:00+00:00,265.6247,11.28,12.57,47.84626,-54.09684
2022-11-06 19:49:00+00:00,272.6981,11.29,12.57,47.84626,-54.09684
2022-11-06 19:59:00+00:00,289.8447,11.38,12.57,47.84626,-54.09684
2022-11-06 20:09:00+00:00,292.8147,11.4,12.57,47.84626,-54.09684
2022-11-06 20:19:00+00:00,297.1614,11.41,12.49,47.84626,-54.09684
2022-11-06 20:29:00+00:00,312.0447,11.42,12.49,47.84626,-54.09684
2022-11-06 20:39:00+00:00,324.8063,11.4,12.49,47.84626,-54.09684
2022-11-06 20:49:00+00:00,318.7879,11.4,12.49,47.84626,-54.09684
2022-11-06 20:59:00+00:00,326.5197,11.4,12.49,47.84626,-54.09684
2022-11-06 21:09:00+00:00,342.7664,11.41,12.49,47.84626,-54.09684
2022-11-06 21:19:00+00:00,345.2613,11.41,12.49,47.84626,-54.09684
2022-11-06 21:29:00+00:00,341.92800000000005,11.44,12.49,47.84626,-54.09684
2022-11-06 21:39:00+00:00,349.7946,11.47,12.49,47.84626,-54.09684
2022-11-06 21:49:00+00:00,357.0295,11.47,12.49,47.84626,-54.09684
2022-11-06 21:59:00+00:00,354.9014,11.49,12.49,47.84626,-54.09684
2022-11-06 22:09:00+00:00,358.5396,11.5,12.49,47.84626,-54.09684
2022-11-06 22:19:00+00:00,363.1396,11.5,12.49,47.84626,-54.09684
2022-11-06 22:29:00+00:00,362.1979,11.5,12.49,47.84626,-54.09684
2022-11-06 22:39:00+00:00,360.4297,11.5,12.49,47.84626,-54.09684
2022-11-06 22:49:00+00:00,359.6913,11.5,12.49,47.84626,-54.09684
2022-11-06 22:59:00+00:00,363.1229,11.5,12.49,47.84626,-54.09684
2022-11-06 23:09:00+00:00,360.4996,11.5,12.49,47.84626,-54.09684
2022-11-06 23:19:00+00:00,353.2246,11.5,12.49,47.84626,-54.09684
2022-11-06 23:29:00+00:00,350.5229,11.5,12.49,47.84626,-54.09684
2022-11-06 23:39:00+00:00,347.18300000000005,11.5,12.49,47.84626,-54.09684
2022-11-06 23:49:00+00:00,341.6896,11.52,12.49,47.84626,-54.09684
2022-11-06 23:59:00+00:00,333.0181,11.56,12.49,47.84626,-54.09684
